Showing default

COSMOS 2269, 23000

Orbit data source: Space-Track

COSMOS 2269, 23000 is a payload satellite owned by VKS (CIS) in LEO that was launched on Sat, 12 Feb 1994 UTC via a TSIKLON-3 launch vehicle from the Plesetsk Missile And Space Complex (PKMTR). Payload-class satellites include a variety of spacecraft equipped with specific instruments for various scientific and technological missions. These include communications satellites like Starlink; space stations such as the ISS; scientific satellites like the Hubble; Earth observation satellites from companies like Planet Labs, Umbra, and HawkEye 360; GPS; miniature CubeSats for education and research; and military/defense satellites.

Loading next visibility...
Identifier
23000, 1994-011B
Orbit
LEO
Country
Flag of CISCIS
Related business
Manufacturer
NPO PM
Mission
Defense Communications
Bus & Motor
STRELA-3, Unknown motor
Mass
225 kg wet, 225 kg dry
Launch date (UTC)
1994-02-12 (32 years ago)
Launch vehicle
TSIKLON-3
Launch site
Plesetsk Missile And Space Complex (PKMTR)
Object type
Payload
Rocket body
Debris
Shape & HBR
Cyl, 0.8 m
Radar Cross Section
1.257 m², Large (>1 m²)

Expand to show TLE details & history
Last TLE update: 10 hours ago

TLE from 10 hours ago
0 COSMOS 2269
1 23000U 94011B   26125.39487152  .00000034  00000-0  13059-3 0  9993
2 23000  82.5700 348.4464 0006246 292.0664 241.2202 12.61942295484278
Epoch: 2026-05-05T09:28Z
TLE epoch observation values (Epoch: 2026-05-05T09:28:36.899Z)
Latitude
6.64876°
Longitude
162.15561°
Altitude
1,419.399 km
Speed
7.15 km/s
True Right ascension
11h 10m 19s
True Declination
6° 36' 46"
Sunlit
Object was in daylight at epoch
Visualization orbit readout
Latitude
Unknown
Longitude
Unknown
Altitude
Unknown
Speed
Unknown
Apparent Right ascension
Unknown
Apparent Declination
Unknown
Sunlit
N/A
Visualization observer readout
Local Sidereal Time
03:39:01
Azimuth
Unknown
Elevation
Unknown
Doppler factor
Unknown
Orbital elements
Apogee altitude
1,417.125 km
Perigee altitude
1,407.393 km
Semi-major axis
7,790.396 km
Eccentricity
0.00062
Inclination
82.57°
RAAN
348.4464°
Arg. of periapsis
292.0664°
True anomaly
241.15749°
Mean anomaly
241.2202°
Eccentric anomaly
241.18884°
Mean motion
3.15649 °/min
Orbital period
114.05 mins
BSTAR
0.00013059
Loading maneuver chart data...
Computing Atmospheric mass density...
Loading historical data...
Loading historical data...
Loading historical data...
Loading historical data...
Loading historical data...
Loading historical data...
Loading historical data...

Documentation

Showing up to 5 results
|